Weather in Vertunovka

Russia / Penza Oblast     52˚27′01″N   43˚35′22″E
temp.,
°C
wind,
m/s
gust,
m/s
humid.,
%
clouds,
%
prec.,
mm/h
press.,
hPa
HPBL,
m
16 january, sat
sat1600:00−10˚nnw4695100 3.6 1002320
03:00−10˚nw61094100 7.5 1001468
06:00−11˚w71194100 2.4 1001537
09:00−12˚w61094100 3.5 1002527
12:00−11˚wsw61193100 0.8 1003564
15:00−11˚wsw61193100 1.1 1004538
18:00−13˚wsw71293100 0.3 1005509
21:00−13˚w71392100 0.5 1007566
17 january, sun
sun1700:00−15˚wsw61193100 0.1 1009477
03:00−18˚wsw51096100 0.1 1011267
06:00−21˚wsw499985 0.0 1012156
09:00−23˚wsw369989 0.0 101496
12:00−20˚wsw349681 0.0 1014166
15:00−20˚wsw239644 0.0 101529
18:00−23˚w22990 0.0 101620
21:00−25˚sw111005 0.0 101820
18 january, mon
mon1800:00−25˚wnw0010094 0.0 101820
03:00−25˚ne1110091 0.0 101820
06:00−24˚ene1297100 0.0 101820
09:00−23˚ene2395100 0.0 102046
12:00−20˚ne2292100 0.0 1019196
15:00−18˚nne2393100 0.1 1018234
18:00−18˚nne3498100 0.8 1018211
21:00−18˚n1298100 1.6 1018110
19 january, tue
tue1900:00−19˚n1298100 0.4 101845
03:00−20˚nw129894 0.5 101820
06:00−22˚nnw229897 0.0 101820
09:00−23˚nw129891 0.1 101920
12:00−20˚wnw129673 0.0 1019122
15:00−21˚nw229684 0.0 101936
18:00−24˚nw229832 0.0 102020
21:00−25˚nw229944 0.0 102120
20 january, wed
wed2000:00−24˚nw229991 0.0 102220
03:00−23˚nw239895 0.0 102329
06:00−21˚nw2498100 0.0 1024101
09:00−23˚nnw339895 0.1 102551
12:00−20˚nnw349671 0.0 1026162
15:00−20˚nw359770 0.0 1026121
18:00−24˚nnw34980 0.0 102838
21:00−26˚n33940 0.0 102922